Weather History for La Grande, OR

Change the Weather History Date:

Friday, March 7, 2014

  Actual Average Record
Temperature  
Mean Temperature 44 °F -  
Max Temperature 53 °F 46 °F 66 °F (2005)
Min Temperature 35 °F 29 °F 13 °F (1985)
Degree Days  
Heating Degree Days 21    
Moisture  
Dew Point 30 °F    
Average Humidity 57    
Maximum Humidity 75    
Minimum Humidity 38    
Precipitation  
Precipitation 0.00 in - - ()
Sea Level Pressure  
Sea Level Pressure 30.20 in    
Wind  
Wind Speed 4 mph (East)    
Max Wind Speed 10 mph    
Max Gust Speed -    
Visibility 10 miles    
Events      
Averages and records for this station are not official NWS values.
T = Trace of Precipitation, MM = Missing Value Source: NWS Daily Summary

Daily Weather History Graph

Daily Weather History Graph

Search for Another Location

Airport:

Trip Planner

Search our weather history database for the weather conditions in past years. The results will help you decide how hot, cold, wet, or windy it might be!

Date:

Astronomy

Mar. 07, 2014 Rise Set
Actual Time 6:19 AM PST 5:47 PM PST
Civil Twilight 5:49 AM PST 6:16 PM PST
Nautical Twilight 5:15 AM PST 6:51 PM PST
Astronomical Twilight 4:41 AM PST 7:25 PM PST
Moon 9:58 AM PST (3/7) 12:13 AM PST (3/7)
Length of Visible Light 12h 27m
Length of Day
11h 28m
Waxing Crescent, 43% of the Moon is Illuminated
Mar 7
Waxing Crescent
Mar 8
First Quarter
Mar 16
Full
Mar 23
Last Quarter
Mar 30
New

Hourly Weather History & Observations

Time (PST) Temp. Windchill Dew Point Humidity Pressure Visibility Wind Dir Wind Speed Gust Speed Precip Events Conditions
12:15 AM 46.4 °F - 28.4 °F 50% 30.06 in 10.0 mi Calm Calm - N/A   Overcast
12:35 AM 44.6 °F - 28.4 °F 53% 30.07 in 10.0 mi Calm Calm - N/A   Overcast
12:55 AM 44.6 °F 41.4 °F 28.4 °F 53% 30.08 in 10.0 mi North 5.8 mph - N/A   Overcast
1:15 AM 44.6 °F 42.2 °F 28.4 °F 53% 30.09 in 10.0 mi NW 4.6 mph - N/A   Overcast
1:35 AM 44.6 °F - 28.4 °F 53% 30.09 in 10.0 mi Calm Calm - N/A   Overcast
1:55 AM 44.6 °F 43.1 °F 28.4 °F 53% 30.10 in 10.0 mi NE 3.5 mph - N/A   Overcast
2:15 AM 44.6 °F - 28.4 °F 53% 30.10 in 10.0 mi Calm Calm - N/A   Overcast
2:35 AM 44.6 °F 40.7 °F 28.4 °F 53% 30.11 in 10.0 mi North 6.9 mph - N/A   Overcast
2:55 AM 42.8 °F 41.1 °F 30.2 °F 61% 30.11 in 10.0 mi North 3.5 mph - N/A   Overcast
3:15 AM 41.0 °F 35.8 °F 30.2 °F 65% 30.12 in 10.0 mi ENE 8.1 mph - N/A   Overcast
3:35 AM 42.8 °F 39.3 °F 30.2 °F 61% 30.12 in 10.0 mi NE 5.8 mph - N/A   Overcast
3:55 AM 42.8 °F 38.6 °F 30.2 °F 61% 30.13 in 10.0 mi NE 6.9 mph - N/A   Overcast
4:15 AM 42.8 °F 37.0 °F 30.2 °F 61% 30.13 in 10.0 mi NE 10.4 mph - N/A   Mostly Cloudy
4:35 AM 42.8 °F 38.6 °F 30.2 °F 61% 30.14 in 10.0 mi NNE 6.9 mph - N/A   Mostly Cloudy
4:55 AM 42.8 °F 39.3 °F 30.2 °F 61% 30.15 in 10.0 mi NE 5.8 mph - N/A   Overcast
5:15 AM 42.8 °F - 30.2 °F 61% 30.15 in 10.0 mi Calm Calm - N/A   Overcast
5:35 AM 41.0 °F 39.0 °F 30.2 °F 65% 30.16 in 10.0 mi SW 3.5 mph - N/A   Overcast
5:55 AM 39.2 °F 37.0 °F 30.2 °F 70% 30.17 in 10.0 mi SW 3.5 mph - N/A   Overcast
6:15 AM 39.2 °F 37.0 °F 30.2 °F 70% 30.17 in 10.0 mi South 3.5 mph - N/A   Overcast
6:35 AM 39.2 °F - 30.2 °F 70% 30.17 in 10.0 mi Calm Calm - N/A   Overcast
6:55 AM 41.0 °F - 30.2 °F 65% 30.18 in 10.0 mi Calm Calm - N/A   Overcast
7:15 AM 42.8 °F 40.1 °F 30.2 °F 61% 30.19 in 10.0 mi South 4.6 mph - N/A   Overcast
7:35 AM 42.8 °F - 30.2 °F 61% 30.19 in 10.0 mi Calm Calm - N/A   Overcast
7:55 AM 42.8 °F 38.6 °F 32.0 °F 66% 30.20 in 10.0 mi ESE 6.9 mph - N/A   Overcast
8:15 AM 44.6 °F 40.2 °F 32.0 °F 61% 30.20 in 10.0 mi East 8.1 mph - N/A   Overcast
8:35 AM 44.6 °F 40.7 °F 33.8 °F 66% 30.21 in 10.0 mi ENE 6.9 mph - N/A   Overcast
8:55 AM 44.6 °F 42.2 °F 33.8 °F 66% 30.21 in 10.0 mi East 4.6 mph - N/A   Overcast
9:15 AM 46.4 °F - 33.8 °F 62% 30.22 in 10.0 mi Calm Calm - N/A   Overcast
9:35 AM 46.4 °F 42.4 °F 33.8 °F 62% 30.22 in 10.0 mi East 8.1 mph - N/A   Overcast
9:55 AM 44.6 °F 40.7 °F 32.0 °F 61% 30.23 in 10.0 mi East 6.9 mph - N/A   Mostly Cloudy
10:15 AM 46.4 °F 42.9 °F 32.0 °F 57% 30.24 in 10.0 mi East 6.9 mph - N/A   Mostly Cloudy
10:35 AM 46.4 °F 42.9 °F 30.2 °F 53% 30.25 in 10.0 mi East 6.9 mph - N/A   Overcast
10:55 AM 46.4 °F 43.5 °F 30.2 °F 53% 30.26 in 10.0 mi East 5.8 mph - N/A   Mostly Cloudy
11:15 AM 48.2 °F - 30.2 °F 50% 30.26 in 10.0 mi North 4.6 mph - N/A   Overcast
11:35 AM 50.0 °F - 30.2 °F 47% 30.25 in 10.0 mi ESE 4.6 mph - N/A   Overcast
11:55 AM 50.0 °F - 30.2 °F 47% 30.25 in 10.0 mi East 4.6 mph - N/A   Overcast
12:15 PM 50.0 °F - 30.2 °F 47% 30.25 in 10.0 mi Calm Calm - N/A   Mostly Cloudy
12:35 PM 51.8 °F - 30.2 °F 44% 30.24 in 10.0 mi Calm Calm - N/A   Partly Cloudy
12:55 PM 53.6 °F - 30.2 °F 41% 30.24 in 10.0 mi ESE 10.4 mph - N/A   Scattered Clouds
1:15 PM 51.8 °F - 32.0 °F 47% 30.23 in 10.0 mi East 8.1 mph - N/A   Mostly Cloudy
1:35 PM 51.8 °F - 30.2 °F 44% 30.23 in 10.0 mi East 9.2 mph - N/A   Scattered Clouds
1:55 PM 51.8 °F - 30.2 °F 44% 30.22 in 10.0 mi SE 6.9 mph - N/A   Scattered Clouds
2:15 PM 53.6 °F - 30.2 °F 41% 30.22 in 10.0 mi Calm Calm - N/A   Scattered Clouds
2:35 PM 53.6 °F - 30.2 °F 41% 30.22 in 10.0 mi Calm Calm - N/A   Clear
2:55 PM 53.6 °F - 30.2 °F 41% 30.22 in 10.0 mi NE 3.5 mph - N/A   Clear
3:15 PM 53.6 °F - 30.2 °F 41% 30.21 in 10.0 mi Calm Calm - N/A   Clear
3:35 PM 53.6 °F - 30.2 °F 41% 30.21 in 10.0 mi SSE 4.6 mph - N/A   Clear
3:55 PM 53.6 °F - 30.2 °F 41% 30.21 in 10.0 mi East 6.9 mph - N/A   Clear
4:15 PM 53.6 °F - 28.4 °F 38% 30.21 in 10.0 mi SE 5.8 mph - N/A   Clear
4:35 PM 53.6 °F - 30.2 °F 41% 30.20 in 10.0 mi SE 6.9 mph - N/A   Clear
4:55 PM 53.6 °F - 30.2 °F 41% 30.20 in 10.0 mi SSE 5.8 mph - N/A   Clear
5:15 PM 51.8 °F - 30.2 °F 44% 30.19 in 10.0 mi SSE 6.9 mph - N/A   Clear
5:35 PM 48.2 °F - 30.2 °F 50% 30.19 in 10.0 mi SSW 4.6 mph - N/A   Clear
5:55 PM 46.4 °F 43.5 °F 30.2 °F 53% 30.20 in 10.0 mi South 5.8 mph - N/A   Clear
6:15 PM 44.6 °F 40.7 °F 30.2 °F 57% 30.20 in 10.0 mi South 6.9 mph - N/A   Clear
6:35 PM 44.6 °F 40.2 °F 30.2 °F 57% 30.21 in 10.0 mi SSW 8.1 mph - N/A   Clear
6:55 PM 42.8 °F 39.3 °F 28.4 °F 57% 30.21 in 10.0 mi South 5.8 mph - N/A   Clear
7:15 PM 42.8 °F 39.3 °F 28.4 °F 57% 30.21 in 10.0 mi SSW 5.8 mph - N/A   Clear
7:35 PM 44.6 °F - 28.4 °F 53% 30.22 in 10.0 mi Calm Calm - N/A   Clear
7:55 PM 41.0 °F 39.0 °F 28.4 °F 61% 30.22 in 10.0 mi East 3.5 mph - N/A   Clear
8:15 PM 39.2 °F - 26.6 °F 61% 30.23 in 10.0 mi Calm Calm - N/A   Clear
8:35 PM 39.2 °F 35.0 °F 28.4 °F 65% 30.24 in 10.0 mi NNW 5.8 mph - N/A   Clear
8:55 PM 37.4 °F - 28.4 °F 70% 30.25 in 10.0 mi Calm Calm - N/A   Clear
9:15 PM 37.4 °F - 26.6 °F 65% 30.25 in 10.0 mi Calm Calm - N/A   Clear
9:35 PM 37.4 °F - 26.6 °F 65% 30.26 in 10.0 mi Calm Calm - N/A   Clear
9:55 PM 35.6 °F - 26.6 °F 70% 30.26 in 10.0 mi Calm Calm - N/A   Clear
10:15 PM 35.6 °F - 26.6 °F 70% 30.26 in 10.0 mi Calm Calm - N/A   Clear
10:35 PM 35.6 °F - 28.4 °F 75% 30.26 in 10.0 mi Calm Calm - N/A   Clear
10:55 PM 35.6 °F 32.8 °F 26.6 °F 70% 30.25 in 10.0 mi North 3.5 mph - N/A   Clear
11:15 PM 37.4 °F 33.8 °F 26.6 °F 65% 30.25 in 10.0 mi NW 4.6 mph - N/A   Clear
11:35 PM 35.6 °F 32.8 °F 28.4 °F 75% 30.24 in 10.0 mi North 3.5 mph - N/A   Clear
11:55 PM 35.6 °F 32.8 °F 26.6 °F 70% 30.23 in 10.0 mi North 3.5 mph - N/A   Clear